Terminal Aerodrome Forecast
Issued by NWS

Home | Current Version | Previous Version | Text Only | Print | Product List | Glossary On
Versions: 1 2 3 4 5 6 7 8 9 10 11 12 13 14
000
FTUS43 KOAX 302338
TAFSNY
TAF
KSNY 302338Z 3100/3124 04011KT P6SM SKC
     FM310100 08006KT P6SM FEW150
     FM311000 15012KT 3SM BR OVC007
     FM311600 16014KT 5SM BR BKN010
     FM311900 17018G24KT P6SM SCT020=

USA.gov is the U.S. government's official web portal to all federal, state and local government web resources and services.